FW8324 Weather Reports


time (UTC)temp
C
wind
direction
speed
KPH
gust
KPH
rain 1hr
cm
rain 24hr
cm
rain mn
cm
humidity
%
barometer
mb
20260505100049 12 209 6.4 17.7 0.00 0.00 0.00 86 1012.6
20260505094548 12 236 4.8 12.9 0.00 0.00 0.00 86 1012.4
20260505093057 12 238 4.8 12.9 0.00 0.00 0.00 85 1012.2
20260505091601 12 178 6.4 14.5 0.00 0.00 0.00 85 1012.1
20260505090049 12 179 3.2 12.9 0.00 0.00 0.00 84 1012.1
20260505084546 12 279 3.2 9.7 0.00 0.00 0.00 84 1011.9
20260505083051 12 164 4.8 17.7 0.00 0.00 0.00 83 1011.9
20260505081555 13 240 4.8 14.5 0.00 0.00 0.00 83 1011.8
20260505080053 13 269 3.2 14.5 0.00 0.00 0.00 83 1011.7
20260505074553 13 230 3.2 17.7 0.00 0.00 0.00 82 1011.6
20260505073053 13 271 3.2 14.5 0.00 0.00 0.00 81 1011.4
20260505071600 13 217 3.2 12.9 0.00 0.00 0.00 81 1011.3
20260505070048 13 193 6.4 16.1 0.00 0.00 0.00 80 1011.3
20260505064550 14 179 6.4 17.7 0.00 0.00 0.00 78 1011.1
20260505063048 15 218 1.6 11.3 0.00 0.00 0.00 77 1011.0
20260505061549 15 254 3.2 9.7 0.00 0.00 0.00 77 1010.8
20260505060056 15 272 3.2 12.9 0.00 0.00 0.00 75 1010.6
20260505054548 16 253 6.4 17.7 0.00 0.00 0.00 73 1010.6
20260505053055 16 192 4.8 12.9 0.00 0.00 0.00 71 1010.4
20260505051558 17 232 4.8 16.1 0.00 0.00 0.00 69 1010.4
20260505050106 17 219 4.8 9.7 0.00 0.00 0.00 67 1010.2
20260505041549 19 188 3.2 14.5 0.00 0.00 0.00 63 1009.7
20260505040046 20 236 3.2 11.3 0.00 0.00 0.00 61 1009.4
20260505034551 21 263 3.2 9.7 0.00 0.00 0.00 58 1009.1
20260505033050 21 266 3.2 8.0 0.00 0.00 0.00 56 1008.9
20260505031554 22 279 3.2 14.5 0.00 0.00 0.00 54 1008.7
20260505030048 23 244 4.8 12.9 0.00 0.00 0.00 53 1008.5
20260505024554 23 257 1.6 11.3 0.00 0.00 0.00 51 1008.3
20260505023052 24 245 3.2 9.7 0.00 0.00 0.00 48 1008.3
20260505021549 25 246 1.6 9.7 0.00 0.00 0.00 47 1008.5
20260505020044 25 250 3.2 9.7 0.00 0.00 0.00 46 1008.2
20260505014549 25 271 3.2 11.3 0.00 0.00 0.00 41 1008.3
20260505013058 26 151 4.8 11.3 0.00 0.00 0.00 38 1008.3
20260505011551 26 296 3.2 8.0 0.00 0.00 0.00 36 1008.3
20260505010051 27 193 3.2 12.9 0.00 0.00 0.00 34 1008.5
20260505004545 27 275 4.8 9.7 0.00 0.00 0.00 33 1008.5
20260505003044 27 259 3.2 11.3 0.00 0.00 0.00 34 1008.6
20260505001542 27 292 3.2 12.9 0.00 0.00 0.00 34 1008.6
20260505000058 27 321 4.8 11.3 0.00 0.00 0.00 33 1008.6
20260504234548 27 219 3.2 9.7 0.00 0.00 0.00 32 1008.7
20260504233047 27 297 3.2 12.9 0.00 0.00 0.00 32 1008.7
20260504231543 27 276 4.8 17.7 0.00 0.00 0.00 33 1008.7
20260504230044 27 254 3.2 14.5 0.00 0.00 0.00 32 1008.7
20260504224545 27 259 3.2 14.5 0.00 0.00 0.00 33 1009.1
20260504223058 27 265 4.8 14.5 0.00 0.00 0.00 35 1009.3
20260504221545 27 186 6.4 12.9 0.00 0.00 0.00 35 1009.5
20260504220047 26 196 4.8 14.5 0.00 0.00 0.00 35 1009.6
20260504214548 26 246 4.8 12.9 0.00 0.00 0.00 38 1009.7
20260504213057 26 231 3.2 12.9 0.00 0.00 0.00 36 1009.6
20260504211551 26 229 3.2 11.3 0.00 0.00 0.00 35 1009.6
20260504210049 26 300 3.2 16.1 0.00 0.00 0.00 34 1009.7
20260504204551 26 296 1.6 12.9 0.00 0.00 0.00 35 1009.8
20260504203043 26 285 6.4 12.9 0.00 0.00 0.00 35 1009.9
20260504201557 26 270 4.8 12.9 0.00 0.00 0.00 36 1009.8
20260504200050 25 250 3.2 11.3 0.00 0.00 0.00 38 1009.8
20260504194550 25 280 3.2 9.7 0.00 0.00 0.00 38 1009.8
20260504193045 25 290 3.2 11.3 0.00 0.00 0.00 39 1010.0
20260504191556 25 249 1.6 11.3 0.00 0.00 0.00 41 1010.0
20260504190058 25 275 4.8 9.7 0.00 0.00 0.00 41 1010.2
20260504184603 23 311 3.2 12.9 0.00 0.00 0.00 43 1010.1
20260504183045 23 249 3.2 8.0 0.00 0.00 0.00 45 1010.4
20260504181547 23 0 3.2 11.3 0.00 0.00 0.00 47 1010.4
20260504180053 22 224 4.8 11.3 0.00 0.00 0.00 47 1010.4
20260504174553 22 275 3.2 11.3 0.00 0.00 0.00 47 1010.4
20260504173049 21 281 3.2 11.3 0.00 0.00 0.00 46 1010.3
20260504171550 21 253 4.8 9.7 0.00 0.00 0.00 51 1010.2
20260504140107 12 0 0.0 1.6 0.00 0.00 0.00 85 1009.2